Location: Mohawk View
(42.7837°N, 73.7885°W)
Time: 16:53:43
(UTC+00:00)

Cosmos 1809 Rocket - Pass Details

Date: 17 June 2021
Orbit: 940 x 964 km, 82.5° (Epoch: 02 August)

Event Time Altitude Azimuth Distance (km) Brightness Sun altitude
Exits shadow 07:43:31 13° 188° (S) 2,453 6.1 -13.4°
Maximum altitude 07:49:04 86° 276° (W) 968 4.5 -12.8°
Drops below altitude 10° 07:55:17 10° 8° (N) 2,708 7.7 -12.0°
Sets 07:57:48 0° 9° (N) 3,660 8.5 -11.7°
